Regional Weather Roundup
Issued by NWS

Home | Current Version | Previous Version | Graphics & Text | Print | Product List | Glossary On
Versions: 1 2 3 4 5 6 7 8 9 10 11 12 13 14 15 16 17 18 19 20 21 22 23 24 25 26 27 28 29 30 31 32 33 34 35 36 37 38 39 40 41 42 43 44 45 46 47 48 49 50
390
ASUS45 KABQ 200010
RWRNM
NEW MEXICO REGIONAL WEATHER ROUNDUP
NATIONAL WEATHER SERVICE ALBUQUERQUE NM
600 PM MDT THU APR 19 2018

NOTE: "FAIR" MEANS FEW OR NO CLOUDS BELOW 12,000 FEET AGL WITH NO
       SIGNIFICANT WEATHER OR OBSTRUCTIONS TO VISION.

      THIS PRODUCT IS RELEASED AS TWO VERSIONS.  ONE VERSION NEAR
      THE TOP OF THE HOUR CONTAINING PRELIMINARY DATA FROM ALBUQUERQUE
      AND OTHER STATIONS.  A FINAL VERSION WITH ADDITIONAL DATA IS
      ISSUED ABOUT 10 MINUTES AFTER THE HOUR.

NMZ501-503-504-510>518-200100-
NORTHWEST PLATEAU/NORTHCENTRAL MOUNTAINS

CITY           SKY/WX    TMP DP  RH WIND       PRES   REMARKS
FARMINGTON     FAIR      70  13  11 S26G39    29.75S
6HR MIN TEMP:  68; 6HR MAX TEMP:  73;

LOS ALAMOS     FAIR      57  19  22 SE17G33   30.11S
SANTA FE       FAIR      60  21  22 SE36G48   30.05S
6HR MIN TEMP:  59; 6HR MAX TEMP:  67;

TAOS           FAIR      57  18  21 S25G33    30.10S
ANGEL FIRE     FAIR      48  19  31 S22G30    30.20S

$$
NMZ402-403-502-505>509-200100-
WESTCENTRAL MOUNTAINS/SOUTHWEST MOUNTAINS

CITY           SKY/WX    TMP DP  RH WIND       PRES   REMARKS
GALLUP         FAIR      71   4   7 S24G40    29.84F
6HR MIN TEMP:  70; 6HR MAX TEMP:  78;

GRANTS         FAIR      70  10  10 S13G26    29.92S
SILVER CITY    FAIR      79  12   8 S20       29.97F

$$
NMZ407-409-411-412-200100-
SOUTHERN DESERTS

CITY           SKY/WX    TMP DP  RH WIND       PRES   REMARKS
DEMING         FAIR      83  17   8 SE13G20   29.91F
6HR MIN TEMP:  75; 6HR MAX TEMP:  84;

LAS CRUCES     FAIR      80  35  19 SE17G24   29.97S
HOLLOMAN AFB   FAIR      79  32  18 SE24G30   29.99F
ALAMOGORDO     FAIR      77  32  19 SE18G28   29.98F
T OR C         FAIR      80  24  12 S26G33    29.93F
6HR MIN TEMP:  71; 6HR MAX TEMP:  81;


$$
NMZ519>523-200100-
CENTRAL VALLEYS/CENTRAL HIGHLANDS

CITY           SKY/WX    TMP DP  RH WIND       PRES   REMARKS
ALBUQUERQUE    PTSUNNY   72  22  15 SE28G38   29.95F
6HR MIN TEMP:  65; 6HR MAX TEMP:  77;

DOUBLE EAGLE   PTSUNNY   72  21  15 SE29G38   29.97F
MORIARTY ARPT  FAIR      64  24  21 SE30G41   30.09F
6HR MIN TEMP:  64; 6HR MAX TEMP:  69;

CLINES CORNERS FAIR      58  23  26 SE33G48   30.16F
6HR MIN TEMP:  55; 6HR MAX TEMP:  61;

BELEN          FAIR      73  21  14 S25G39    29.94F
6HR MIN TEMP:  68; 6HR MAX TEMP:  77;

SOCORRO        FAIR      75  27  17 SE26G37   29.93F
6HR MIN TEMP:  73; 6HR MAX TEMP:  78;


$$
NMZ524>526-539-540-200100-
SOUTHCENTRAL MOUNTAINS

CITY           SKY/WX    TMP DP  RH WIND       PRES   REMARKS
RUIDOSO        FAIR      59  23  25 SE22G32   30.20S

$$
NMZ527>531-200100-
NORTHEAST HIGHLANDS/NORTHEAST PLAINS

CITY           SKY/WX    TMP DP  RH WIND       PRES   REMARKS
LAS VEGAS      FAIR      55  22  27 S24G36    30.19F
6HR MIN TEMP:  53; 6HR MAX TEMP:  59;

RATON          FAIR      58  18  21 S28G39    30.13S
6HR MIN TEMP:  57; 6HR MAX TEMP:  63;

CLAYTON        FAIR      63  19  18 S25G38    30.14F
6HR MIN TEMP:  57; 6HR MAX TEMP:  67;


$$
NMZ532>537-200100-
EASTCENTRAL PLAINS

CITY           SKY/WX    TMP DP  RH WIND       PRES   REMARKS
SANTA ROSA     FAIR      64  25  22 S22G29    30.13F
TUCUMCARI      FAIR      70  25  18 S23G29    30.12S
6HR MIN TEMP:  67; 6HR MAX TEMP:  74;

CANNON AFB     FAIR      67  25  20 SE22G31   30.17S
6HR MIN TEMP:  63; 6HR MAX TEMP:  71;

CLOVIS AIRPORT FAIR      67  22  18 SE23G30   30.17F

$$
NMZ028-029-538-200100-
SOUTHEAST PLAINS

CITY           SKY/WX    TMP DP  RH WIND       PRES   REMARKS
ROSWELL        FAIR      75  26  16 SE21G30   30.10R
6HR MIN TEMP:  69; 6HR MAX TEMP:  76;

ARTESIA        FAIR      73  28  19 SE25G33   30.10S
CARLSBAD       FAIR      74  31  20 SE22G28   30.07F
6HR MIN TEMP:  70; 6HR MAX TEMP:  77;

HOBBS          SUNNY     72  21  15 SE26G32   30.13F


$$




USA.gov is the U.S. government's official web portal to all federal, state and local government web resources and services.